Location: Bishop�s Knoyle
(51.0728°N, 2.1714°W)
Time: 04:13:08
(UTC+00:00)

ATLAS CENTAUR R/B - Pass Details

Date: 25 January 2021
Orbit: 475 x 670 km, 64.7° (Epoch: 06 March)

Event Time Altitude Azimuth Distance (km) Brightness Sun altitude
Exits shadow 06:01:00 14° 210° (SSW) 1,396 3.2 -17.7°
Maximum altitude 06:04:00 68° 129° (SE) 517 1.3 -17.2°
Drops below altitude 10° 06:07:39 10° 46° (NE) 1,658 4.2 -16.7°
Sets 06:09:48 0° 44° (NE) 2,552 5.2 -16.3°
